Location: Proctor
(47.8934°N, 114.3048°W)
Time: 12:32:52
(UTC+00:00)

ZACube-1 - Visible Passes

Search period start: 28 June 2022 00:00
Search period end: 08 July 2022 00:00
Orbit: 581 x 662 km, 97.6° (Epoch: 28 June)

Date Brightness Start Highest point End Pass type
(mag) Time Alt. Az. Time Alt. Az. Time Alt. Az.
01 Jul ? 10:20:08 10° NE 10:22:39 15° E 10:25:11 10° ESE visible
02 Jul ? 10:37:11 10° NE 10:40:40 22° E 10:44:08 10° SE visible
03 Jul ? 10:54:35 10° NNE 10:58:36 31° E 11:02:39 10° SSE visible
06 Jul ? 10:13:24 10° ENE 10:15:28 13° E 10:17:32 10° ESE visible
07 Jul ? 10:30:14 10° NE 10:33:29 19° E 10:36:43 10° SE visible
